Location: Newark
(23.1300°N, 73.6109°E)
Time: 17:18:19
(UTC+00:00)

AO-7 - Pass Details

Date: 08 July 2020
Orbit: 1440 x 1458 km, 101.8° (Epoch: 05 August)

Event Time Altitude Azimuth Distance (km) Brightness Sun altitude
Rises 23:00:46 0° 12° (NNE) 4,562 ? -17.9°
Reaches altitude 10° 23:03:33 10° 11° (N) 3,582 ? -17.4°
Maximum altitude 23:11:53 75° 288° (WNW) 1,504 ? -15.8°
Enters shadow 23:20:05 11° 205° (SSW) 3,531 ? -14.2°
